Hourly Data Report for August 30, 2020

SVARTEVAEG
NUNAVUT
Current Station Operator: ECCC - MSC

81°09'39.000" N
91°48'59.060" W
72.00 m
2403833
71872
NSG

Download Data

Hourly Data (August 2020)
Hourly Data Report for August 30, 2020
TIME Temp Definition
°C
Dew Point Definition
°C
Rel Hum Definition
%
Wind Dir Definition
10's deg

Wind Spd Definition
km/h
Visibility Definition
km
Stn Press Definition
kPa
Hmdx Definition


Wind Chill Definition


Weather Definition


00:00 0.5 -0.9 90 34 23   100.20     LegendNANA
01:00 0.6 -1.0 89 34 22   100.20     LegendNANA
02:00 0.7 -0.8 90 35 20   100.22     LegendNANA
03:00 0.8 -1.0 88 36 13   100.20     LegendNANA
04:00 0.7 -0.7 90 34 14   100.22     LegendNANA
05:00 0.6 -0.8 90 34 15   100.24     LegendNANA
06:00 0.2 -1.0 92 35 16   100.20     LegendNANA
07:00 0.0 -1.2 92 35 17   100.18   -5 LegendNANA
08:00 0.1 -1.5 89 35 18   100.19     LegendNANA
09:00 0.4 -1.5 87 35 15   100.17     LegendNANA
10:00 0.6 -1.6 85 35 18   100.16     LegendNANA
11:00 0.4 -2.1 83 34 17   100.13     LegendNANA
12:00 0.5 -2.3 82 34 11   100.11     LegendNANA
13:00 -0.3 -1.4 92 35 21   100.11   -6 LegendNANA
14:00 0.1 -1.6 88 34 18   100.10     LegendNANA
15:00 -0.6 -1.5 94 34 12   100.09   -5 LegendNANA
16:00 -1.3 -1.8 97 35 19   100.07   -7 LegendNANA
17:00 -1.8 -2.2 97 34 19   100.06   -7 LegendNANA
18:00 -2.1 -2.3 98 34 15   100.02   -7 LegendNANA
19:00 -2.5 -2.8 98 34 19   100.00   -8 LegendNANA
20:00 -2.5 -2.6 99 34 19   99.95   -8 LegendNANA
21:00 -2.2 -2.4 99 35 14   99.95   -7 LegendNANA
22:00 -3.9 -5.1 91 24 12   99.93   -9 LegendNANA
23:00 -3.1 -3.2 99 25 17   99.89   -9 LegendNANA

Notes on Data Quality.

Legend

  • E = Estimated
  • M = Missing
  • NA = Not Available*
  • [empty] = Indicates an unobserved value
Date modified: